Location: Kleinseebach
(49.6500°N, 11.0000°E)
Time: 04:17:08
(UTC+02:00)

ISS - Visible Passes

Search period start: 25 June 2021 00:00
Search period end: 05 July 2021 00:00
Orbit: 419 x 422 km, 51.6° (Epoch: 24 June)

Date Brightness Start Highest point End Pass type
(mag) Time Alt. Az. Time Alt. Az. Time Alt. Az.
29 Jun -1.8 04:15:59 10° S 04:18:26 19° SE 04:20:52 10° E visible
30 Jun -1.4 03:29:24 10° SSE 03:30:54 13° SE 03:32:26 10° ESE visible
01 Jul -3.0 04:16:11 10° SW 04:19:21 39° SSE 04:22:31 10° E visible
02 Jul -2.4 03:29:53 18° S 03:31:30 27° SE 03:34:25 10° E visible
03 Jul -2.0 02:43:27 18° SE 02:43:37 18° SE 02:46:01 10° E visible
03 Jul -3.8 04:16:37 10° WSW 04:19:58 75° SSE 04:23:21 10° ENE visible
04 Jul -1.2 01:56:52 11° ESE 01:56:52 11° ESE 01:57:03 10° ESE visible
04 Jul -3.5 03:29:45 20° SW 03:31:51 54° SSE 03:35:08 10° ENE visible
